Vorticity
10 11 9 7 5 4 3 3 4 4 5 7 8 7 7 9 8 5 10 13 17 16 8 7 6 5 5 5 4 4 4 5 6 4 7 8 8 8 7 8 9 10 10
9 7 7 6 4 3 3 4 5 5 6 7 7 8 7 6 9 11 17 15 6 6 5 5 6 5 6 6 6 7 7 6 8 6 1 1 5 7 7 10 12 14 13
9 6 5 4 4 4 5 5 5 6 8 9 8 6 9 11 16 14 4 6 5 5 5 4 6 7 7 5 4 3 3 5 6 5 -3 -0 2 10 13 18 18 17 17
7 8 6 5 6 5 5 6 8 9 8 8 10 10 12 14 5 5 4 4 7 4 4 5 3 2 1 3 3 3 4 5 4 3 5 14 20 18 23 21 21 17 17
7 7 7 7 7 7 8 9 8 7 8 8 9 13 6 5 4 5 8 5 4 5 5 4 4 4 5 6 6 4 5 2 2 4 11 24 14 21 19 19 16 17 15
9 8 7 7 8 8 8 6 9 12 9 13 7 4 6 4 9 7 6 4 5 3 1 -0 1 4 6 4 4 4 -1 4 11 18 26 17 20 20 19 16 15 15 14
7 8 7 7 8 9 11 12 11 10 7 4 6 5 7 11 6 4 3 3 4 5 6 6 5 6 3 2 -1 3 10 20 25 23 18 16 15 18 18 15 13 11 10
8 9 10 11 10 7 9 9 5 7 5 4 6 10 9 4 3 3 3 2 3 4 6 5 4 2 -1 1 10 25 31 31 30 18 12 17 20 16 16 14 11 11 15
8 8 7 8 11 13 10 5 7 5 6 7 9 7 4 1 2 4 4 5 5 4 2 4 4 3 8 25 27 36 38 29 22 17 20 24 19 16 15 11 12 17 10
9 12 16 12 6 5 11 4 6 7 10 10 6 3 4 3 7 9 9 3 4 1 5 4 5 24 34 34 35 36 35 31 28 26 25 23 18 12 9 12 19 9 9
12 7 4 5 8 6 7 9 10 8 5 3 2 2 8 8 4 1 2 2 5 6 6 14 30 37 34 33 31 28 30 30 33 29 24 20 15 9 12 19 8 10 10
7 9 8 9 8 8 9 8 6 6 9 10 9 5 2 -0 3 3 3 5 9 22 37 38 40 34 29 28 31 31 31 31 27 20 17 14 8 19 13 10 8 8 12
7 10 9 7 9 11 12 13 11 7 4 5 7 8 4 1 3 3 5 16 42 43 31 33 27 25 28 31 28 31 31 24 19 17 12 16 14 9 10 10 6 9 9
14 12 12 11 10 9 5 5 7 8 4 2 2 3 4 1 3 10 30 46 39 33 22 21 24 21 23 29 31 26 24 19 20 17 15 13 11 12 9 6 9 7 14
12 10 10 9 6 7 5 4 2 2 4 4 3 4 8 7 20 40 43 35 34 18 11 18 19 20 33 32 31 30 16 25 20 13 18 4 12 6 8 10 7 12 19
10 10 8 4 4 3 2 2 4 5 3 4 7 18 28 39 42 40 40 30 16 12 14 17 5 35 36 18 -5 28 19 22 23 6 15 8 7 9 10 8 9 19 18
5 3 5 3 2 3 4 4 5 -2 2 19 30 33 37 36 37 37 22 8 7 17 14 7 -1 40 0 51 30 32 5 11 8 11 2 14 7 8 9 11 8 12 15
4 3 4 4 4 4 5 6 6 14 26 29 27 35 38 35 26 13 10 5 12 19 11 5 7 51 2 -17 18 36 5 7 14 10 6 9 8 10 10 10 12 9 9
4 6 6 7 9 8 5 8 24 32 27 34 39 43 34 18 13 7 5 11 12 16 13 29 23 43 39 7 24 6 14 19 12 9 10 8 9 11 10 10 8 6 -1
9 10 10 8 6 8 19 32 28 28 33 33 31 32 23 18 10 5 11 18 15 18 19 5 62 -11 3 -17 16 -6 12 20 14 14 12 8 7 15 12 8 1 0 -0
9 7 6 11 19 32 28 22 26 29 28 23 33 15 12 10 5 9 16 14 17 19 30 -6 29 19 6 38 27 3 13 13 7 7 10 9 13 7 5 4 4 -3 -3
7 11 22 29 29 19 17 26 26 27 23 31 16 12 10 4 9 17 18 18 22 23 14 12 27 15 22 13 21 33 -7 -6 3 11 6 4 5 3 2 7 6 9 20
26 29 26 19 15 18 18 22 29 24 24 12 12 8 4 15 16 16 19 21 22 15 7 48 10 -5 21 5 13 23 20 10 8 10 4 5 7 10 15 23 19 29 19
22 15 14 13 19 14 20 32 25 22 10 9 8 6 19 16 14 20 19 22 22 8 12 21 3 14 2 10 19 12 14 23 16 8 9 11 14 9 19 19 22 16 9
12 11 15 13 17 18 33 26 16 8 10 11 15 17 18 14 17 20 21 17 9 18 11 36 5 -5 9 5 5 3 11 2 6 9 13 20 16 20 15 17 10 12 14
15 14 16 20 18 29 27 14 8 10 13 11 16 18 16 17 19 17 19 25 2 27 15 49 0 6 11 -3 12 3 10 0 3 14 19 14 18 16 14 15 13 14 14
Height
5741 5739 5737 5735 5732 5729 5726 5723 5719 5716 5711 5708 5704 5699 5695 5691 5687 5683 5678 5674 5669 5665 5660 5657 5652 5647 5643 5638 5633 5628 5623 5619 5617 5612 5603 5597 5592 5588 5585 5582 5579 5575 5571
5731 5729 5727 5724 5721 5718 5714 5710 5707 5702 5698 5694 5690 5685 5681 5676 5671 5667 5663 5659 5655 5651 5645 5641 5637 5631 5627 5621 5616 5611 5606 5600 5597 5595 5586 5578 5573 5567 5564 5560 5556 5554 5551
5721 5718 5715 5712 5708 5704 5701 5697 5693 5689 5685 5680 5675 5671 5666 5661 5656 5651 5648 5644 5640 5635 5630 5625 5621 5614 5610 5603 5596 5591 5585 5579 5575 5573 5569 5558 5551 5544 5542 5538 5534 5532 5530
5709 5706 5703 5699 5695 5691 5687 5683 5679 5675 5670 5666 5661 5655 5650 5646 5641 5637 5633 5629 5624 5619 5613 5608 5602 5595 5588 5582 5576 5570 5564 5559 5553 5550 5548 5539 5530 5522 5519 5516 5514 5512 5510
5697 5693 5690 5686 5682 5678 5674 5669 5665 5660 5655 5650 5646 5641 5636 5631 5626 5621 5617 5613 5608 5602 5595 5588 5581 5573 5567 5560 5553 5549 5541 5536 5530 5526 5523 5515 5509 5502 5499 5498 5497 5494 5492
5684 5681 5677 5672 5668 5663 5658 5654 5650 5645 5639 5634 5630 5625 5621 5614 5608 5603 5598 5593 5587 5581 5575 5567 5559 5551 5544 5537 5530 5524 5518 5509 5504 5499 5495 5491 5486 5483 5480 5481 5480 5479 5478
5672 5667 5662 5658 5653 5649 5644 5639 5634 5629 5624 5619 5614 5609 5603 5597 5590 5584 5579 5573 5566 5558 5550 5543 5537 5529 5520 5512 5502 5493 5487 5481 5474 5472 5468 5468 5465 5464 5463 5464 5463 5463 5460
5656 5651 5647 5642 5638 5632 5627 5622 5618 5613 5608 5604 5599 5593 5587 5579 5570 5564 5558 5552 5545 5536 5527 5518 5511 5504 5494 5481 5471 5460 5452 5448 5447 5444 5443 5445 5445 5445 5447 5448 5448 5446 5445
5640 5635 5631 5626 5620 5615 5611 5606 5601 5597 5592 5587 5580 5574 5566 5559 5548 5540 5532 5526 5519 5512 5502 5492 5480 5471 5460 5444 5433 5427 5420 5417 5418 5419 5421 5424 5427 5429 5431 5432 5432 5431 5431
5624 5620 5613 5607 5603 5598 5593 5589 5584 5579 5574 5567 5561 5552 5544 5536 5524 5514 5503 5496 5491 5485 5476 5463 5450 5433 5419 5409 5398 5393 5390 5392 5392 5394 5401 5406 5410 5412 5414 5417 5417 5418 5418
5608 5603 5597 5590 5586 5581 5576 5570 5565 5560 5554 5547 5541 5533 5523 5512 5503 5490 5479 5468 5456 5451 5440 5430 5418 5402 5390 5380 5371 5366 5367 5367 5370 5375 5381 5388 5394 5397 5400 5403 5405 5406 5406
5593 5587 5580 5574 5569 5562 5557 5551 5545 5538 5532 5524 5518 5511 5501 5489 5477 5468 5455 5440 5427 5414 5405 5395 5385 5376 5365 5356 5350 5347 5348 5349 5354 5360 5366 5374 5380 5384 5387 5390 5393 5394 5395
5577 5570 5564 5558 5551 5544 5539 5532 5525 5516 5508 5500 5492 5485 5480 5466 5453 5441 5429 5415 5400 5387 5378 5370 5360 5353 5346 5338 5334 5333 5334 5337 5342 5348 5355 5361 5368 5372 5376 5379 5381 5383 5384
5561 5553 5546 5540 5534 5527 5520 5512 5504 5494 5485 5475 5466 5457 5452 5445 5429 5415 5402 5389 5379 5369 5362 5355 5346 5337 5331 5326 5322 5322 5323 5327 5332 5338 5345 5352 5357 5363 5366 5369 5371 5373 5373
5542 5535 5528 5522 5515 5510 5502 5493 5483 5473 5459 5450 5439 5428 5418 5415 5403 5388 5376 5369 5361 5354 5348 5342 5334 5326 5320 5315 5315 5316 5317 5320 5325 5331 5337 5345 5350 5354 5357 5360 5363 5363 5363
5527 5520 5513 5506 5498 5490 5482 5476 5464 5450 5439 5425 5411 5398 5390 5376 5373 5367 5358 5351 5346 5340 5337 5330 5324 5316 5312 5310 5310 5311 5313 5316 5321 5327 5332 5338 5342 5346 5349 5352 5354 5355 5355
5510 5503 5495 5487 5478 5469 5460 5449 5442 5437 5417 5403 5388 5376 5363 5354 5348 5345 5342 5340 5335 5330 5324 5320 5316 5311 5309 5306 5307 5309 5312 5315 5318 5323 5328 5332 5336 5340 5343 5345 5347 5348 5348
5492 5483 5475 5467 5457 5447 5436 5425 5413 5402 5397 5387 5371 5358 5346 5339 5336 5333 5331 5328 5325 5319 5314 5310 5306 5303 5304 5304 5304 5306 5309 5312 5315 5319 5323 5327 5330 5333 5336 5339 5340 5342 5343
5473 5464 5455 5446 5434 5423 5411 5401 5390 5378 5368 5359 5351 5343 5333 5330 5327 5324 5320 5316 5313 5310 5306 5302 5298 5296 5299 5301 5301 5303 5306 5309 5312 5315 5318 5322 5324 5326 5329 5332 5334 5335 5337
5454 5443 5432 5423 5412 5401 5390 5379 5368 5357 5348 5339 5333 5328 5326 5322 5320 5316 5312 5307 5303 5300 5298 5295 5292 5293 5295 5297 5299 5301 5303 5305 5308 5311 5314 5316 5318 5320 5323 5326 5327 5329 5330
5433 5423 5411 5401 5390 5379 5368 5360 5349 5340 5333 5328 5323 5319 5316 5313 5310 5306 5302 5298 5295 5292 5290 5289 5288 5290 5292 5292 5295 5298 5299 5302 5304 5306 5309 5310 5312 5315 5317 5319 5320 5320 5321
5412 5401 5392 5381 5371 5362 5353 5343 5334 5327 5322 5317 5314 5312 5308 5305 5301 5297 5293 5289 5286 5284 5283 5282 5283 5286 5288 5289 5290 5293 5295 5298 5300 5302 5303 5305 5307 5309 5310 5311 5311 5311 5312
5390 5381 5373 5364 5355 5346 5338 5331 5323 5318 5313 5310 5307 5303 5300 5296 5292 5288 5284 5281 5280 5279 5278 5278 5280 5282 5285 5286 5288 5290 5292 5294 5296 5297 5299 5300 5300 5301 5301 5301 5301 5302 5303
5371 5363 5356 5349 5341 5332 5325 5319 5314 5309 5306 5302 5299 5295 5291 5287 5283 5280 5277 5275 5274 5274 5273 5275 5277 5280 5282 5284 5285 5287 5289 5291 5292 5293 5293 5292 5293 5293 5293 5293 5294 5295 5296
5356 5349 5341 5334 5327 5321 5314 5309 5306 5302 5298 5294 5290 5286 5282 5278 5275 5273 5271 5270 5270 5270 5270 5272 5275 5278 5281 5282 5284 5286 5287 5288 5288 5288 5287 5286 5286 5286 5287 5287 5288 5289 5290
5342 5334 5327 5321 5315 5309 5304 5301 5299 5294 5290 5286 5282 5278 5274 5271 5268 5267 5266 5265 5266 5267 5268 5269 5273 5276 5279 5281 5282 5283 5284 5285 5284 5282 5281 5281 5281 5281 5282 5282 5283 5284 5285